7M1JBF-11 Weather Reports


Display with metric or nautical units.
time (UTC)temp
F
wind
direction
speed
MPH
gust
MPH
rain 1hr
in
rain 24hr
in
rain mn
in
humidity
%
barometer
mb
20260502163925 65 45 0.0 0.0 0.00 0.00 0.00 100 1011.1
20260502162924 65 45 0.0 0.0 0.00 0.00 0.00 100 1011.0
20260502161923 66 63 0.0 0.0 0.00 0.00 0.00 100 1011.1
20260502160921 66 45 0.0 0.0 0.00 0.00 0.00 100 1011.3
20260502151914 67 90 0.0 1.0 0.00 0.00 0.00 100 1011.6
20260502150913 68 77 0.0 2.0 0.00 0.00 0.00 100 1011.6
20260502122851 71 45 0.0 0.0 0.00 0.00 0.00 100 1010.6
20260502121850 71 270 0.0 0.0 0.00 0.00 0.00 100 1010.8
20260502120850 71 45 0.0 0.0 0.00 0.00 0.00 100 1010.6
20260502115847 72 96 0.0 0.0 0.00 0.00 0.00 100 1010.5
20260502114846 72 45 0.0 0.0 0.00 0.00 0.00 100 1010.3
20260502113845 72 112 0.0 0.0 0.00 0.00 0.00 100 1010.1
20260502112843 73 67 0.0 0.0 0.00 0.00 0.00 100 1009.8
20260502110840 73 45 0.0 0.0 0.00 0.00 0.00 100 1009.7
20260502104838 74 78 0.0 1.0 0.00 0.00 0.00 100 1009.3
20260502103838 74 90 0.0 0.0 0.00 0.00 0.00 100 1009.3
20260502102835 74 101 0.0 1.0 0.00 0.00 0.00 100 1009.2
20260502101834 74 90 0.0 0.0 0.00 0.00 0.00 100 1009.1
20260502100832 75 45 0.0 1.0 0.00 0.00 0.00 100 1009.1
20260502090824 77 90 0.0 1.0 0.00 0.00 0.00 100 1008.4
20260502070808 81 90 2.0 3.0 0.00 0.00 0.00 100 1006.9
20260502065806 82 163 0.0 1.0 0.00 0.00 0.00 100 1006.8
20260502062802 82 75 1.0 1.0 0.00 0.00 0.00 100 1006.3
20260502061801 82 209 1.0 2.0 0.00 0.00 0.00 100 1006.1
20260502055758 82 112 0.0 3.0 0.00 0.00 0.00 100 1005.8
20260502054757 82 128 2.0 2.0 0.00 0.00 0.00 100 1005.6
20260502053755 83 141 0.0 4.0 0.00 0.00 0.00 100 1005.5
20260502052754 83 45 0.0 3.0 0.00 0.00 0.00 100 1005.4
20260502051753 83 95 2.0 3.0 0.00 0.00 0.00 100 1005.3
20260502050753 84 72 3.0 4.0 0.00 0.00 0.00 100 1005.1
20260502045750 85 191 1.0 3.0 0.00 0.00 0.00 100 1005.1
20260502042748 88 95 1.0 3.0 0.00 0.00 0.00 100 1005.0
20260502041747 87 87 1.0 5.0 0.00 0.00 0.00 100 1005.0
20260502034742 86 90 2.0 4.0 0.00 0.00 0.00 100 1004.8
20260502033739 86 80 1.0 4.0 0.00 0.00 0.00 100 1004.6
20260502032738 86 61 3.0 3.0 0.00 0.00 0.00 100 1004.8
20260502031736 85 85 1.0 3.0 0.00 0.00 0.00 100 1004.7
20260502030735 85 247 1.0 4.0 0.00 0.00 0.00 100 1004.5
20260502025734 85 63 0.0 3.0 0.00 0.00 0.00 100 1004.4
20260502024732 86 78 2.0 4.0 0.00 0.00 0.00 100 1004.2
20260502021728 86 60 2.0 2.0 0.00 0.00 0.00 100 1003.9
20260502015726 85 78 0.0 3.0 0.00 0.00 0.00 100 1003.6
20260502014724 85 168 1.0 6.0 0.00 0.00 0.00 100 1003.6
20260502013723 84 106 3.0 6.0 0.00 0.00 0.00 100 1003.5
20260502012721 83 101 4.0 4.0 0.00 0.00 0.00 100 1003.4
20260502011720 83 87 2.0 4.0 0.00 0.00 0.00 100 1003.3
20260502010719 83 60 3.0 10.0 0.00 0.00 0.00 100 1003.3
20260502005717 83 222 6.0 8.0 0.00 0.00 0.00 100 1003.4
20260502004716 85 195 4.0 12.0 0.00 0.00 0.00 100 1003.3
20260502003715 86 238 12.0 12.0 0.00 0.00 0.00 100 1003.2
20260502002713 89 222 6.0 10.0 0.00 0.00 0.00 100 1003.1
20260502001712 89 183 6.0 8.0 0.00 0.00 0.00 100 1002.9
20260502000711 89 96 1.0 3.0 0.00 0.00 0.00 100 1003.0
20260501234708 88 45 0.0 2.0 0.00 0.00 0.00 100 1002.8
20260501233706 87 94 0.0 4.0 0.00 0.00 0.00 100 1002.6
20260501232705 86 58 1.0 3.0 0.00 0.00 0.00 100 1002.3
20260501231704 86 69 2.0 3.0 0.00 0.00 0.00 100 1002.3
20260501230702 85 120 0.0 0.0 0.00 0.00 0.00 100 1001.9
20260501225701 83 266 0.0 3.0 0.00 0.00 0.00 100 1001.7
20260501224700 82 51 0.0 1.0 0.00 0.00 0.00 100 1001.7
20260501223658 80 78 1.0 2.0 0.00 0.00 0.00 100 1001.4
20260501222657 79 81 1.0 3.0 0.00 0.00 0.00 100 1001.1
20260501221656 79 73 1.0 3.0 0.00 0.00 0.00 100 1001.0
20260501220654 78 19 0.0 3.0 0.00 0.00 0.00 100 1000.9
20260501215653 76 270 0.0 4.0 0.00 0.00 0.00 100 1000.6
20260501214652 75 74 3.0 3.0 0.00 0.00 0.00 100 1000.5
20260501213650 73 11 0.0 3.0 0.00 0.00 0.00 100 1000.1
20260501212649 71 90 0.0 2.0 0.00 0.00 0.00 100 1000.0
20260501211647 69 56 1.0 2.0 0.00 0.00 0.00 100 999.7
20260501210646 67 92 1.0 3.0 0.00 0.00 0.00 100 999.7
20260501205645 66 84 0.0 3.0 0.00 0.00 0.00 100 999.5
20260501204645 64 87 0.0 3.0 0.00 0.00 0.00 100 999.5
20260501203642 62 85 0.0 1.0 0.00 0.00 0.00 100 999.4
20260501202641 60 81 1.0 4.0 0.00 0.00 0.00 100 999.1
20260501201639 59 63 4.0 4.0 0.00 0.00 0.00 100 998.7
20260501200638 59 90 2.0 4.0 0.00 0.00 0.00 100 998.4
20260501195636 59 97 3.0 4.0 0.00 0.00 0.00 100 998.1
20260501194636 59 83 1.0 4.0 0.00 0.00 0.00 100 997.8
20260501192632 58 80 2.0 3.0 0.00 0.00 0.00 100 997.3
20260501191631 58 67 2.0 4.0 0.00 0.00 0.00 100 997.0
20260501190630 58 80 2.0 4.0 0.00 0.00 0.00 100 996.8
20260501185628 58 167 0.0 3.0 0.00 0.00 0.00 100 996.3
20260501184627 58 87 3.0 6.0 0.00 0.00 0.00 100 996.3
20260501183626 58 81 1.0 2.0 0.00 0.00 0.00 100 996.0
20260501182624 58 92 2.0 2.0 0.00 0.00 0.00 100 995.9
20260501181623 58 94 3.0 4.0 0.00 0.00 0.00 100 995.3
20260501180622 58 86 3.0 3.0 0.00 0.00 0.00 100 995.0
20260501175620 58 83 0.0 0.0 0.00 0.00 0.00 100 995.2
20260501174619 58 106 2.0 5.0 0.00 0.00 0.00 100 995.1
20260501173617 58 74 1.0 2.0 0.00 0.00 0.00 100 995.1
20260501171615 58 225 3.0 4.0 0.00 0.00 0.00 100 994.7